Weather History for Deering, AK

Change the Weather History Date:

Monday, March 10, 2014

  Actual Average (PAOT) Record (PAOT)
Temperature  
Mean Temperature -12 °F -  
Max Temperature -6 °F - 34 °F (1949)
Min Temperature -18 °F -7 °F -45 °F (1971)
Degree Days  
Heating Degree Days 77 65  
Month to date heating degree days 650  
Since 1 July heating degree days 10892  
Cooling Degree Days 0    
Month to date cooling degree days  
Year to date cooling degree days  
Moisture  
Dew Point -16 °F    
Average Humidity 76    
Maximum Humidity 84    
Minimum Humidity 70    
Precipitation  
Precipitation 0.00 in 0.02 in 0.19 in (1988)
Month to date precipitation 0.18  
Year to date precipitation 1.46  
Snow  
Snow 0.00 in 0.20 in 2.20 in (1988)
Month to date snowfall 2.5  
Since 1 July snowfall 50.1  
Snow Depth -    
Sea Level Pressure  
Sea Level Pressure 29.70 in    
Wind  
Wind Speed 8 mph (SW)    
Max Wind Speed 16 mph    
Max Gust Speed -    
Visibility 8 miles    
Events      
T = Trace of Precipitation, MM = Missing Value Source: NWS Daily Summary

Daily Weather History Graph

Daily Weather History Graph

Search for Another Location

Airport:

Trip Planner

Search our weather history database for the weather conditions in past years. The results will help you decide how hot, cold, wet, or windy it might be!

Date:

Astronomy

Mar. 10, 2014 Rise Set
Actual Time 9:28 AM AKDT 8:35 PM AKDT
Civil Twilight 8:37 AM AKDT 9:26 PM AKDT
Nautical Twilight 7:37 AM AKDT 10:27 PM AKDT
Astronomical Twilight 6:31 AM AKDT 11:33 PM AKDT
Moon 1:44 PM AKDT (3/10) 7:36 AM AKDT (3/10)
Length of Visible Light 12h 48m
Length of Day
11h 06m
Waxing Gibbous, 71% of the Moon is Illuminated
Mar 10
Waxing Gibbous
Mar 16
Full
Mar 23
Last Quarter
Mar 30
New
Apr 7
First Quarter

Hourly Weather History & Observations

Time (AKDT) Temp. Windchill Dew Point Humidity Pressure Visibility Wind Dir Wind Speed Gust Speed Precip Events Conditions
12:53 AM -17.0 °F -29.7 °F -24.0 °F 70% 29.77 in 10.0 mi SW 4.6 mph - N/A   Clear
1:53 AM -18.0 °F -36.1 °F -25.1 °F 70% 29.77 in 10.0 mi SW 8.1 mph - N/A   Clear
2:53 AM -18.9 °F -32.0 °F -25.1 °F 74% 29.77 in 10.0 mi SW 4.6 mph - N/A   Clear
3:53 AM -18.0 °F -38.6 °F -24.0 °F 74% 29.76 in 10.0 mi SSW 10.4 mph - N/A   Clear
4:34 AM -14.8 °F -34.6 °F -20.2 °F 77% 29.76 in 10.0 mi SSW 10.4 mph - N/A   Mostly Cloudy
4:53 AM -15.0 °F -32.4 °F -18.9 °F 82% 29.76 in 10.0 mi SSW 8.1 mph - N/A   Overcast
5:53 AM -11.9 °F -28.7 °F -18.0 °F 74% 29.76 in 10.0 mi SSW 8.1 mph - N/A   Overcast
6:19 AM -11.2 °F -30.1 °F -16.6 °F 77% 29.75 in 10.0 mi SSW 10.4 mph - N/A   Scattered Clouds
6:53 AM -11.0 °F -30.9 °F -17.0 °F 75% 29.75 in 10.0 mi SSW 11.5 mph - N/A   Clear
7:45 AM -9.4 °F -26.8 °F -14.8 °F 77% 29.74 in 7.0 mi SSW 9.2 mph - N/A   Partly Cloudy
7:53 AM -9.0 °F -27.4 °F -15.0 °F 75% 29.75 in 6.0 mi SW 10.4 mph - N/A   Haze
8:11 AM -9.4 °F -27.9 °F -14.8 °F 77% 29.75 in 5.0 mi SSW 10.4 mph - N/A   Haze
8:53 AM -9.9 °F -26.3 °F -16.1 °F 74% 29.75 in 3.0 mi South 8.1 mph - N/A   Haze
9:35 AM -9.4 °F -24.3 °F -16.6 °F 71% 29.74 in 2.5 mi SSW 6.9 mph - N/A   Haze
9:42 AM -11.2 °F -26.4 °F -14.8 °F 84% 29.74 in 2.5 mi SSW 6.9 mph - N/A   Overcast
9:51 AM -11.2 °F -27.8 °F -16.6 °F 77% 29.73 in 3.0 mi SW 8.1 mph - N/A   Haze
9:53 AM -11.0 °F -27.6 °F -16.1 °F 78% 29.73 in 3.0 mi SW 8.1 mph - N/A   Haze
10:05 AM -11.2 °F -24.8 °F -16.6 °F 77% 29.73 in 2.5 mi SSW 5.8 mph - N/A   Haze
10:12 AM -11.2 °F -26.4 °F -16.6 °F 77% 29.73 in 3.0 mi SSW 6.9 mph - N/A   Haze
10:41 AM -11.2 °F -24.8 °F -16.6 °F 77% 29.73 in 9.0 mi SSW 5.8 mph - N/A   Scattered Clouds
10:53 AM -11.9 °F -23.8 °F -17.0 °F 78% 29.74 in 8.0 mi SSW 4.6 mph - N/A   Scattered Clouds
11:05 AM -11.2 °F -20.6 °F -14.8 °F 84% 29.73 in 6.0 mi SSW 3.5 mph - N/A   Mostly Cloudy
11:51 AM -9.4 °F -18.6 °F -14.8 °F 77% 29.73 in 9.0 mi SW 3.5 mph - N/A   Scattered Clouds
11:53 AM -9.9 °F - -15.0 °F 78% 29.73 in 9.0 mi Calm Calm - N/A   Scattered Clouds
12:53 PM -9.0 °F -27.4 °F -15.0 °F 75% 29.73 in 10.0 mi West 10.4 mph - N/A   Clear
1:53 PM -8.0 °F -25.0 °F -14.1 °F 75% 29.73 in 10.0 mi West 9.2 mph - N/A   Clear
2:53 PM -7.1 °F -25.0 °F -13.0 °F 75% 29.71 in 10.0 mi WNW 10.4 mph - N/A   Clear
3:53 PM -7.1 °F -22.8 °F -13.0 °F 75% 29.68 in 10.0 mi WNW 8.1 mph - N/A   Clear
4:53 PM -7.1 °F -22.8 °F -11.9 °F 79% 29.66 in 10.0 mi WNW 8.1 mph - N/A   Clear
5:53 PM -6.0 °F -18.6 °F -11.9 °F 75% 29.63 in 10.0 mi WNW 5.8 mph - N/A   Clear
6:53 PM -7.1 °F -22.8 °F -13.0 °F 75% 29.60 in 10.0 mi West 8.1 mph - N/A   Clear
7:53 PM -8.0 °F -22.5 °F -15.0 °F 71% 29.58 in 10.0 mi SW 6.9 mph - N/A   Clear
8:53 PM -11.0 °F -31.8 °F -16.1 °F 78% 29.54 in 10.0 mi WSW 12.7 mph - N/A   Clear
9:53 PM -9.9 °F -28.6 °F -15.0 °F 78% 29.51 in 10.0 mi West 10.4 mph - N/A   Clear
10:53 PM -7.1 °F -29.1 °F -13.0 °F 75% 29.48 in 10.0 mi West 16.1 mph - N/A   Clear
11:53 PM -9.9 °F -27.5 °F -16.1 °F 74% 29.45 in 10.0 mi WSW 9.2 mph - N/A   Clear